This is the latest recevied weather packets stored in our database for station/object K1ZK-13. If no packets are shown the sender has not sent any weather packets the latest 10 day(s).
| Time | Temp. | Humidity | Pressure | Rain* | Wind** | Luminosity | Snow |
|---|---|---|---|---|---|---|---|
| 1777987114 | 18.33° C | 58% | 1005.4 hPa | 0 mm | - | 436 W/m² | - |
| 1777986811 | 17.78° C | 60% | 1005 hPa | 0 mm | - | 386 W/m² | - |
| 1777986509 | 18.33° C | 58% | 1005 hPa | 0 mm | - | 375 W/m² | - |
| 1777986207 | 17.78° C | 59% | 1005.1 hPa | 0 mm | - | 349 W/m² | - |
| 1777985904 | 17.78° C | 60% | 1005.3 hPa | 0 mm | - | 328 W/m² | - |
| 1777985297 | 16.67° C | 60% | 1005.4 hPa | 0 mm | - | 306 W/m² | - |
| 1777984995 | 16.67° C | 60% | 1005.7 hPa | 0 mm | - | 306 W/m² | - |
| 1777984690 | 16.67° C | 61% | 1005.5 hPa | 0 mm | - | 257 W/m² | - |
| 1777984387 | 15.56° C | 63% | 1005.4 hPa | 0 mm | - | 108 W/m² | - |
| 1777984083 | 15.56° C | 63% | 1005.6 hPa | 0 mm | - | 108 W/m² | - |
| 1777982870 | 15.56° C | 60% | 1005.4 hPa | 0 mm | - | 81 W/m² | - |
| 1777982567 | 15.56° C | 60% | 1005.4 hPa | 0 mm | - | 81 W/m² | - |
| 1777982265 | 15.56° C | 61% | 1005.5 hPa | 0 mm | - | 82 W/m² | - |
| 1777981963 | 15.56° C | 62% | 1005.5 hPa | 0 mm | - | 75 W/m² | - |
| 1777981660 | 15.56° C | 62% | 1005.6 hPa | 0 mm | - | 53 W/m² | - |
| 1777981356 | 15.56° C | 62% | 1005.4 hPa | 0 mm | - | 62 W/m² | - |
| 1777981053 | 15° C | 62% | 1004.9 hPa | 0 mm | - | 37 W/m² | - |
| 1777980750 | 15° C | 62% | 1005 hPa | 0 mm | - | 30 W/m² | - |
| 1777980446 | 15° C | 62% | 1005.3 hPa | 0 mm | - | 19 W/m² | - |
| 1777980144 | 15° C | 63% | 1005.3 hPa | 0 mm | - | 19 W/m² | - |
| 1777979843 | 15° C | 63% | 1005.6 hPa | 0 mm | - | 20 W/m² | - |
| 1777979539 | 15° C | 63% | 1005.4 hPa | 0 mm | - | 31 W/m² | - |
| 1777979235 | 15° C | 63% | 1005.3 hPa | 0 mm | - | 35 W/m² | - |
| 1777978933 | 15° C | 64% | 1005.2 hPa | 0 mm | - | 43 W/m² | - |
| 1777978630 | 15° C | 63% | 1005.2 hPa | 0 mm | - | 44 W/m² | - |
* Rain latest hour (hover to see other rain measurements)
** Current wind speed in m/s (hover to see current wind gust speed)